Location: Gairloch Mountain Observatory
(46.1383°N, 60.9640°W)
Time: 15:46:13
(UTC-03:00)

CENTAUR R/B - Visible Passes

Search period start: 28 September 2016 00:00
Search period end: 08 October 2016 00:00
Orbit: 845 x 1343 km, 63.5° (Epoch: 27 September)

Date Brightness Start Highest point End Pass type
(mag) Time Alt. Az. Time Alt. Az. Time Alt. Az.
28 Sep 4.9 01:49:21 10° NW 01:54:33 21° N 02:00:07 10° NE visible
28 Sep 4.3 03:40:41 10° NNW 03:47:34 37° NNE 03:54:59 10° E visible
28 Sep 3.0 05:31:17 10° NW 05:39:04 80° SW 05:47:23 10° SSE visible
28 Sep 3.8 19:27:43 10° SE 19:31:18 16° ESE 19:35:05 10° ENE visible
28 Sep 2.4 21:14:35 10° SSW 21:20:43 84° SE 21:27:43 10° NE visible
28 Sep 4.2 23:06:35 10° W 23:12:15 31° NNW 23:18:36 10° NNE visible
29 Sep 4.9 01:00:27 10° NW 01:05:26 20° N 01:10:48 10° NE visible
29 Sep 4.6 02:52:26 10° NNW 02:58:45 29° NNE 03:05:35 10° E visible
29 Sep 3.2 04:43:03 10° NW 04:50:46 73° NE 04:59:04 10° SE visible
29 Sep 2.6 20:26:46 10° SSW 20:32:39 53° ESE 20:39:17 10° NE visible
29 Sep 3.7 22:17:34 10° WSW 22:23:33 41° NW 22:30:17 10° NNE visible
30 Sep 4.8 00:11:18 10° WNW 00:16:20 21° N 00:21:48 10° NE visible
30 Sep 4.8 02:04:03 10° NW 02:09:48 24° NNE 02:16:00 10° ENE visible
30 Sep 3.7 03:54:52 10° NW 04:02:19 53° NE 04:10:20 10° ESE visible
30 Sep 3.3 05:45:42 10° NW 05:53:11 50° WSW 06:01:06 10° S visible
30 Sep 3.2 19:39:31 10° S 19:44:48 32° ESE 19:50:38 10° NE visible
30 Sep 3.0 21:28:53 10° SW 21:35:02 59° NW 21:42:02 10° NE visible
30 Sep 4.6 23:22:01 10° WNW 23:27:19 24° NNW 23:33:06 10° NNE visible
01 Oct 4.9 01:15:29 10° NW 01:20:45 21° N 01:26:25 10° ENE visible
01 Oct 4.1 03:06:41 10° NNW 03:13:41 39° NE 03:21:15 10° ESE visible
01 Oct 3.0 04:57:18 10° NW 05:05:04 74° SW 05:13:21 10° SSE visible
01 Oct 2.5 20:40:33 10° SW 20:46:42 88° NW 20:53:45 10° NE visible
01 Oct 4.3 22:32:48 10° W 22:38:24 29° NNW 22:44:39 10° NNE visible
02 Oct 4.9 00:26:38 10° NW 00:31:39 20° N 00:37:03 10° NE visible
02 Oct 4.5 02:18:27 10° NNW 02:24:54 30° NNE 02:31:52 10° E visible
02 Oct 3.1 04:09:03 10° NW 04:16:48 79° NE 04:25:08 10° SE visible
02 Oct 3.8 06:00:29 10° NW 06:07:03 29° WSW 06:13:54 10° SSW visible
02 Oct 2.6 19:52:38 10° SSW 19:58:36 60° ESE 20:05:21 10° NE visible
02 Oct 3.9 21:43:45 10° WSW 21:49:39 38° NW 21:56:18 10° NNE visible
02 Oct 4.8 23:37:32 10° NW 23:42:33 21° N 23:47:57 10° NE visible
03 Oct 4.7 01:30:06 10° NNW 01:36:00 25° NNE 01:42:19 10° ENE visible
03 Oct 3.5 03:20:51 10° NW 03:28:23 57° NE 03:36:30 10° ESE visible
03 Oct 3.3 05:11:46 10° NW 05:19:08 45° WSW 05:26:54 10° S visible
03 Oct 3.1 19:05:14 10° S 19:10:42 36° ESE 19:16:46 10° NE visible
03 Oct 3.3 20:54:58 10° WSW 21:01:05 54° NW 21:08:02 10° NE visible
03 Oct 4.7 22:48:17 10° WNW 22:53:30 23° NNW 22:59:11 10° NE visible
04 Oct 4.8 00:41:35 10° NW 00:46:58 22° NNE 00:52:44 10° ENE visible
04 Oct 4.0 02:32:40 10° NNW 02:39:48 42° NE 02:47:29 10° ESE visible
04 Oct 2.9 04:23:20 10° NW 04:31:03 68° WSW 04:39:17 10° SSE visible
04 Oct 4.3 06:16:14 10° WNW 06:20:40 16° WSW 06:25:14 10° SW visible
04 Oct 2.7 20:06:32 10° SW 20:12:43 80° NW 20:19:46 10° NE visible
04 Oct 4.4 21:59:01 10° W 22:04:33 28° NNW 22:10:40 10° NNE visible
04 Oct 4.9 23:52:49 10° NW 23:57:52 20° N 00:00:01 18° NNE visible
05 Oct 4.8 01:44:28 10° NNW 01:56:09 17° E 01:58:11 10° E visible
05 Oct 3.0 03:43:38 75° SE 03:43:38 75° SE 03:51:10 10° SE visible
05 Oct 3.9 05:31:07 24° W 05:32:57 26° WSW 05:39:29 10° SSW visible
05 Oct 2.6 19:18:31 10° SSW 19:24:33 67° ESE 19:31:25 10° NE visible
05 Oct 4.0 21:09:55 10° W 21:15:46 36° NNW 21:22:19 10° NNE visible
05 Oct 4.8 23:03:45 10° NW 23:08:45 20° N 23:12:17 15° NNE visible
06 Oct 4.8 00:56:09 10° NNW 00:59:25 21° N 00:59:25 21° N visible
06 Oct 4.8 03:00:22 20° ESE 03:00:22 20° ESE 03:02:38 10° SE visible
06 Oct 3.8 04:47:47 32° SSW 04:47:47 32° SSW 04:52:40 10° S visible
06 Oct 3.4 20:21:05 10° WSW 20:27:09 49° NW 20:34:03 10° NE visible
06 Oct 4.7 22:14:32 10° WNW 22:19:41 22° NNW 22:24:57 11° NNE visible
07 Oct 4.8 00:07:40 10° NW 00:12:05 22° N 00:12:05 22° N visible
07 Oct 5.2 01:58:40 10° NNW 02:16:30 - ESE 01:59:13 12° NNW visible
07 Oct 4.8 04:03:52 16° SSE 04:03:52 16° SSE 04:05:11 10° SSE visible
07 Oct 2.8 19:32:33 10° SW 19:38:44 73° NW 19:45:47 10° NE visible
07 Oct 4.5 21:25:15 10° WNW 21:30:43 26° NNW 21:36:44 10° NNE visible
07 Oct 4.8 23:18:58 10° NW 23:24:04 20° N 23:24:55 20° NNE visible
